[[{"header":{"parameterUnit":"m.s-1","parameterCategory":1,"la1":30.2991,"la2":30.254,"lo1":-89.0895,"lo2":-89.0444,"dy":0.0017,"dx":0.0017,"nx":28,"ny":28,"refTime":"2023-09-25T21:00:00:Z","depth":0,"parameterNumber":2,"parameterNumberName":"U-component_of_WINDS"},"data":[0,0,0,0,0,0,0,0,0,0,0,0,0,0,0,0,0,0,0,0,0,0,0,0,0,0,0,0,0,0,0,0,0,0,0,0,0,0,0,0,0,0,0,0,0,0,0,0,0,0,0,0,0,0,0,0,0,0,-1.2812,-1.2812,0,-1.2834,-1.2834,-1.2835,-1.2815,-1.2814,-1.2813,-1.2812,-1.2836,-1.2837,-1.2839,0,0,0,0,0,0,0,0,0,0,0,0,0,-1.2754,-1.2755,-1.2811,-1.2812,-1.2812,-1.2834,-1.2834,-1.2835,-1.2815,-1.2814,-1.2813,-1.2812,-1.2836,-1.2837,-1.2839,0,0,0,0,0,0,0,0,0,0,0,0,0,-1.2778,-1.2755,-1.2811,-1.2805,-1.2804,-1.2834,-1.2834,-1.2835,-1.2815,-1.2814,-1.2813,-1.2811,-1.2835,-1.2837,-1.2839,-1.2876,0,0,-1.2845,-1.2846,0,0,0,0,0,0,0,0,-1.2776,-1.278,-1.2806,-1.2805,-1.2805,-1.282,-1.2823,-1.2849,-1.2815,-1.2811,-1.2812,-1.2811,-1.2832,-1.2834,-1.2841,-1.2878,-1.2879,-1.2846,-1.2847,-1.2848,-1.2848,0,0,0,0,0,0,0,-1.2775,-1.2779,-1.282,-1.2806,-1.2806,-1.2801,-1.2804,-1.2827,-1.2828,-1.2811,-1.281,-1.2813,-1.2831,-1.2839,-1.2841,-1.2879,-1.2846,-1.2847,-1.2849,-1.285,-1.295,-1.2951,0,0,0,0,0,0,-1.2773,-1.2777,-1.282,-1.2821,-1.2787,-1.2804,-1.2806,-1.2817,-1.2828,-1.2828,-1.2814,-1.2812,-1.2836,-1.2839,-1.2842,-1.2888,-1.2848,-1.285,-1.2851,-1.2949,-1.295,-1.2952,0,0,0,0,0,0,-1.2772,-1.2777,-1.2819,-1.2799,-1.2804,-1.2806,-1.2818,-1.2818,-1.2825,-1.283,-1.283,-1.2821,-1.2835,-1.2839,-1.2869,-1.2889,-1.2851,-1.2853,-1.2947,-1.2949,-1.2951,-1.2979,0,0,0,0,0,0,-1.2771,-1.2777,-1.2791,-1.2799,-1.2805,-1.2844,-1.2819,-1.2819,-1.2829,-1.2826,-1.2837,-1.2837,-1.2835,-1.2866,-1.2871,-1.2891,-1.2854,-1.2945,-1.2948,-1.295,-1.2977,-1.2982,-1.2987,0,0,0,0,0,-1.2769,-1.2797,-1.2791,-1.2797,-1.2822,-1.2845,-1.2849,-1.2845,-1.283,-1.2845,-1.2848,-1.2837,-1.2886,-1.2869,-1.2874,-1.2895,-1.2944,-1.2947,-1.295,-1.2974,-1.2981,-1.2987,0,0,0,0,0,0,-1.279,-1.2798,-1.2792,-1.2824,-1.2834,-1.2842,-1.2859,-1.2852,-1.2866,-1.2863,-1.2858,-1.2861,-1.2892,-1.2897,-1.2878,-1.2934,-1.2913,-1.2917,-1.2929,-1.2936,-1.2941,-1.2939,-1.2856,0,0,0,0,0,-1.2799,-1.2817,-1.2823,-1.2851,-1.2856,-1.2857,-1.2867,-1.2863,-1.2874,-1.2878,-1.2883,-1.2894,-1.2913,-1.2924,-1.2941,-1.2978,-1.2981,-1.2995,-1.3,-1.3004,-1.3008,-1.303,-1.3037,-1.2962,-1.2962,-1.2962,0,0,-1.2816,-1.2823,-1.2834,-1.2855,-1.2863,-1.2882,-1.2861,-1.2882,-1.2897,-1.2881,-1.291,-1.2914,-1.2926,-1.296,-1.2975,-1.2965,-1.303,-1.3009,-1.3012,-1.3013,-1.3034,-1.3041,-1.3048,-1.2965,-1.2964,-1.2964,0,0,-1.2858,-1.2865,-1.2889,-1.2898,-1.291,-1.2911,-1.2917,-1.2927,-1.2929,-1.2958,-1.2947,-1.2965,-1.2996,-1.3006,-1.3015,-1.3064,-1.3055,-1.3069,-1.3096,-1.3118,-1.3123,-1.3129,-1.3147,-1.3154,-1.3073,-1.3073,-1.3073,0,-1.2879,-1.2907,-1.2903,-1.2926,-1.2936,-1.2924,-1.295,-1.2958,-1.2975,-1.2983,-1.2971,-1.3011,-1.3018,-1.3055,-1.3067,-1.3075,-1.3083,-1.3068,-1.3123,-1.3128,-1.3133,-1.3151,-1.3158,-1.3075,-1.3075,-1.3075,-1.3075,0,-1.2932,-1.2952,-1.2971,-1.2988,-1.3001,-1.3025,-1.3026,-1.3039,-1.3035,-1.3038,-1.3068,-1.3077,-1.3096,-1.3105,-1.31,-1.3142,-1.3135,-1.3123,-1.3102,-1.3142,-1.3159,-1.3165,-1.3078,-1.3077,-1.3077,-1.3076,0,0,-1.2986,-1.3003,-1.301,-1.3019,-1.3032,-1.3048,-1.3073,-1.3092,-1.3104,-1.3117,-1.3138,-1.3166,-1.3156,-1.3166,-1.3164,-1.3182,-1.3223,-1.3169,-1.3169,-1.3179,-1.3271,-1.328,-1.3288,-1.3217,-1.3219,-1.322,-1.327,0,-1.303,-1.3072,-1.307,-1.311,-1.313,-1.312,-1.3142,-1.3153,-1.3157,-1.3175,-1.3179,-1.32,-1.3184,-1.3191,-1.3209,-1.3214,-1.3241,-1.321,-1.3238,-1.3239,-1.3235,-1.3296,-1.3305,-1.3352,-1.3276,-1.3278,-1.3278,0,-1.3085,-1.3101,-1.3143,-1.3156,-1.3164,-1.3183,-1.3202,-1.3219,-1.3233,-1.3234,-1.3247,-1.3243,-1.3269,-1.3248,-1.3285,-1.3264,-1.3276,-1.3281,-1.3283,-1.3285,-1.3261,-1.3301,-1.3367,-1.3374,-1.3288,-1.3288,-1.3287,0,-1.3122,-1.3153,-1.3183,-1.3191,-1.3206,-1.322,-1.3228,-1.324,-1.3253,-1.327,-1.3278,-1.3298,-1.3308,-1.3324,-1.3326,-1.331,-1.3364,-1.3343,-1.3367,-1.3367,-1.3378,-1.3378,-1.3448,-1.3386,-1.3386,-1.3385,-1.3385,0,-1.317,-1.3196,-1.32,-1.3218,-1.3248,-1.3247,-1.3277,-1.3283,-1.3295,-1.3315,-1.3308,-1.3327,-1.3328,-1.3348,-1.335,-1.3382,-1.3386,-1.3389,-1.3389,-1.339,-1.339,-1.3397,-1.3394,-1.3387,-1.3387,-1.3386,-1.3386,0,-1.3215,-1.3219,-1.3251,-1.3264,-1.3268,-1.3289,-1.3301,-1.3319,-1.3323,-1.3349,-1.3355,-1.3362,-1.3386,-1.3389,-1.3416,-1.3418,-1.3456,-1.3453,-1.3452,-1.3451,-1.3476,-1.3474,-1.3554,-1.3565,-1.3495,-1.3495,-1.3496,0,-1.3246,-1.3266,-1.3282,-1.3295,-1.3304,-1.3325,-1.3338,-1.3338,-1.3353,-1.3371,-1.3388,-1.3411,-1.343,-1.3469,-1.3476,-1.3498,-1.3496,-1.3522,-1.3499,-1.35,-1.3497,-1.3496,-1.3499,-1.3527,-1.3527,-1.3528,-1.3528,0,-1.33,-1.3302,-1.3321,-1.3341,-1.3357,-1.3373,-1.3388,-1.34,-1.3403,-1.3419,-1.3444,-1.3458,-1.3488,-1.3512,-1.3534,-1.3542,-1.3537,-1.3536,-1.3543,-1.3544,-1.3543,-1.3545,-1.3464,-1.3534,-1.3533,-1.3533,-1.3533,-1.3532,-1.334,-1.3358,-1.3373,-1.3395,-1.3407,-1.3422,-1.344,-1.3447,-1.3468,-1.3491,-1.3491,-1.3518,-1.3534,-1.3564,-1.3574,-1.3597,-1.3588,-1.3598,-1.3601,-1.3603,-1.3606,-1.3539,-1.3601,-1.3601,-1.36,-1.36,-1.36,0,-1.3395,-1.3404,-1.3425,-1.3447,-1.3465,-1.3458,-1.3475,-1.3491,-1.3515,-1.3531,-1.355,-1.3579,-1.3603,-1.3614,-1.3638,-1.3654,-1.3652,-1.366,-1.3659,-1.3662,-1.3612,-1.3604,-1.3661,-1.3661,-1.3661,-1.3661,-1.3661,-1.3661,-1.3425,-1.3456,-1.346,-1.3498,-1.3507,-1.3534,-1.3545,-1.356,-1.3572,-1.3605,-1.3625,-1.3632,-1.3647,-1.3672,-1.3694,-1.3697,-1.3706,-1.3716,-1.3718,-1.3671,-1.3665,-1.3659,-1.3651,-1.3718,-1.3718,-1.3766,-1.3766,-1.3767]},{"header":{"parameterUnit":"m.s-1","parameterCategory":1,"la1":30.2991,"la2":30.254,"lo1":-89.0895,"lo2":-89.0444,"dy":0.0017,"dx":0.0017,"nx":28,"ny":28,"refTime":"2023-09-25T21:00:00:Z","depth":0,"parameterNumber":3,"parameterNumberName":"V-component_of_WINDS"},"data":[0,0,0,0,0,0,0,0,0,0,0,0,0,0,0,0,0,0,0,0,0,0,0,0,0,0,0,0,0,0,0,0,0,0,0,0,0,0,0,0,0,0,0,0,0,0,0,0,0,0,0,0,0,0,0,0,0,0,2.6745,2.6744,0,2.6643,2.6642,2.6641,2.6671,2.6673,2.6676,2.6678,2.6563,2.6558,2.6553,0,0,0,0,0,0,0,0,0,0,0,0,0,2.6955,2.6951,2.6745,2.6743,2.6742,2.6643,2.6642,2.664,2.6671,2.6673,2.6676,2.6679,2.6564,2.6559,2.6552,0,0,0,0,0,0,0,0,0,0,0,0,0,2.6859,2.695,2.6745,2.6746,2.6745,2.6644,2.6642,2.664,2.667,2.6674,2.6677,2.668,2.6566,2.6559,2.6552,2.644,0,0,2.6528,2.6525,0,0,0,0,0,0,0,0,2.6865,2.6852,2.6747,2.6746,2.6744,2.6673,2.6674,2.6573,2.667,2.6698,2.6678,2.6681,2.6596,2.6586,2.656,2.6435,2.643,2.6528,2.6523,2.652,2.6518,0,0,0,0,0,0,0,2.6871,2.6856,2.6704,2.6745,2.6744,2.6748,2.6738,2.6655,2.663,2.6696,2.6698,2.6686,2.6596,2.6567,2.6557,2.6428,2.6528,2.6521,2.6517,2.6514,2.6204,2.62,0,0,0,0,0,0,2.688,2.6861,2.6707,2.6701,2.6814,2.6742,2.673,2.6693,2.6631,2.6625,2.6684,2.6688,2.6579,2.6566,2.6554,2.6416,2.652,2.6513,2.6508,2.6207,2.6203,2.6199,0,0,0,0,0,0,2.6885,2.6866,2.6712,2.6782,2.6763,2.6735,2.6692,2.6689,2.666,2.6622,2.6616,2.6659,2.6581,2.6564,2.6468,2.6413,2.6509,2.6502,2.6212,2.6206,2.6201,2.6143,0,0,0,0,0,0,2.6891,2.6868,2.6827,2.6781,2.6759,2.6631,2.6689,2.6685,2.6648,2.6653,2.6597,2.6591,2.6582,2.6479,2.6461,2.6404,2.6497,2.6216,2.6209,2.6203,2.6149,2.6136,2.6124,0,0,0,0,0,2.6898,2.6813,2.6825,2.6806,2.6708,2.6627,2.6614,2.6608,2.6644,2.6601,2.6576,2.6593,2.6423,2.6469,2.6449,2.6389,2.622,2.6211,2.6203,2.6155,2.6138,2.6125,0,0,0,0,0,0,2.685,2.6807,2.682,2.6718,2.6677,2.6633,2.6579,2.6592,2.6536,2.6543,2.6535,2.6522,2.6423,2.6397,2.6449,2.6277,2.6326,2.6313,2.6296,2.6281,2.6268,2.6274,2.649,0,0,0,0,0,2.6828,2.677,2.6734,2.6648,2.6627,2.6606,2.6571,2.6571,2.6526,2.6507,2.6475,2.6428,2.6364,2.6322,2.6261,2.6147,2.6133,2.6096,2.6084,2.6073,2.6061,2.5996,2.5977,2.6172,2.6172,2.6172,0,0,2.6781,2.6751,2.6713,2.6637,2.6605,2.6541,2.6591,2.6521,2.6472,2.6495,2.6403,2.6378,2.6325,2.6219,2.6171,2.6194,2.6005,2.6063,2.6055,2.6048,2.5985,2.5967,2.595,2.6166,2.6167,2.6168,0,0,2.6661,2.6635,2.6558,2.6526,2.6478,2.6465,2.6447,2.6402,2.6387,2.6295,2.631,2.6251,2.6142,2.6102,2.6068,2.5936,2.5947,2.5916,2.5848,2.5785,2.577,2.5756,2.5705,2.5687,2.5905,2.5904,2.5904,0,2.6607,2.6515,2.6517,2.6446,2.641,2.6433,2.6353,2.632,2.6253,2.6226,2.6255,2.6118,2.6084,2.5968,2.5936,2.5909,2.5884,2.592,2.5773,2.5759,2.5746,2.5697,2.5678,2.5901,2.5901,2.5901,2.5902,0,2.6449,2.6385,2.6328,2.6266,2.6225,2.615,2.6137,2.6094,2.6098,2.6081,2.5986,2.5947,2.5877,2.5851,2.5852,2.5734,2.575,2.5776,2.5824,2.5724,2.5677,2.5659,2.5895,2.5896,2.5898,2.5899,0,0,2.6292,2.6235,2.6213,2.6185,2.6134,2.6082,2.6008,2.5943,2.5905,2.5859,2.5793,2.5701,2.5725,2.5686,2.5683,2.5629,2.5521,2.5661,2.5659,2.5633,2.5384,2.5361,2.534,2.5531,2.5528,2.5525,2.5387,0,2.6166,2.6037,2.6037,2.5917,2.5855,2.5876,2.581,2.577,2.5753,2.5696,2.5676,2.5609,2.5648,2.5624,2.5571,2.5546,2.547,2.5556,2.5465,2.5461,2.5473,2.5316,2.5292,2.5163,2.5369,2.5366,2.5364,0,2.6,2.5951,2.5825,2.5783,2.5757,2.5698,2.5638,2.5585,2.5539,2.553,2.5488,2.5494,2.5414,2.547,2.5357,2.5415,2.5378,2.536,2.5355,2.5342,2.5403,2.5294,2.5123,2.5102,2.5336,2.5338,2.534,0,2.5893,2.5796,2.5708,2.5683,2.5633,2.559,2.5567,2.5525,2.5486,2.5433,2.5407,2.5344,2.5308,2.5259,2.5246,2.5289,2.5132,2.5187,2.5118,2.5118,2.508,2.5082,2.4895,2.5064,2.5065,2.5065,2.5066,0,2.5748,2.5669,2.5659,2.5604,2.5516,2.5516,2.5427,2.5406,2.5369,2.5307,2.5323,2.5264,2.5254,2.5192,2.5183,2.5088,2.5073,2.5061,2.5058,2.5056,2.5057,2.5028,2.5035,2.506,2.5061,2.5062,2.5063,0,2.5612,2.5603,2.5507,2.5469,2.5457,2.5393,2.5358,2.5303,2.529,2.5212,2.5193,2.517,2.5098,2.5083,2.4997,2.499,2.4877,2.4885,2.4893,2.4892,2.4822,2.4827,2.4607,2.4576,2.4769,2.4768,2.4766,0,2.5518,2.5458,2.5414,2.5376,2.5351,2.5289,2.525,2.5248,2.5206,2.515,2.5101,2.5032,2.4976,2.486,2.4832,2.4766,2.477,2.4698,2.476,2.476,2.4763,2.4765,2.4757,2.4684,2.4682,2.468,2.4679,0,2.5351,2.535,2.5295,2.5238,2.5192,2.5146,2.5102,2.5069,2.506,2.5012,2.4941,2.4898,2.4812,2.4741,2.4675,2.4647,2.4659,2.4661,2.464,2.4635,2.464,2.4632,2.4855,2.4664,2.4665,2.4667,2.4667,2.4668,2.523,2.5177,2.5138,2.5075,2.5043,2.5002,2.4949,2.493,2.4871,2.4803,2.4805,2.4725,2.4679,2.4593,2.4561,2.4497,2.4519,2.449,2.4482,2.4474,2.4466,2.4655,2.4485,2.4486,2.4486,2.4486,2.4487,0,2.506,2.5036,2.498,2.4919,2.4869,2.4892,2.4844,2.48,2.4731,2.4689,2.4635,2.4551,2.4483,2.4452,2.4384,2.4338,2.4342,2.432,2.432,2.4313,2.4452,2.4474,2.4318,2.4318,2.4318,2.4318,2.4318,2.4318,2.4965,2.4876,2.487,2.4764,2.474,2.4665,2.4636,2.4597,2.4563,2.4471,2.4415,2.4397,2.4358,2.4288,2.4225,2.4217,2.4189,2.4163,2.4158,2.4287,2.4304,2.432,2.4341,2.4159,2.4158,2.4024,2.4022,2.4022]}]]